Akron, CO

12:48 PM MST on November 20, 2017 (GMT -0700)
Akron-Washington County

Weather History for KAKO - September, 2013

Change the Weather History Date:

Saturday, September 7, 2013

  Actual Average Record
Temperature  
Mean Temperature 78 °F 67 °F  
Max Temperature 98 °F 81 °F 100 °F (1940)
Min Temperature 57 °F 53 °F 39 °F (1943)
Degree Days  
Heating Degree Days 0    
Month to date heating degree days 0  
Cooling Degree Days 13    
Month to date cooling degree days 92  
Growing Degree Days 27 (Base 50)    
Moisture  
Dew Point 45 °F    
Average Humidity 44    
Maximum Humidity 77    
Minimum Humidity 11    
Precipitation  
Precipitation 0.00 in 0.04 in 1.49 in (1946)
Month to date precipitation 0.01 0.33  
Year to date precipitation 11.43 13.82  
Sea Level Pressure  
Sea Level Pressure 29.89 in    
Wind  
Wind Speed 10 mph (SSW)    
Max Wind Speed 24 mph    
Max Gust Speed 29 mph    
Visibility 10 miles    
Events      
T = Trace of Precipitation, MM = Missing Value Source: NWS Daily Summary

Daily Weather History Graph

Daily Weather History Graph

Search for Another Location

Airport or City:

Trip Planner

Search our weather history database for the weather conditions in past years. The results will help you decide how hot, cold, wet, or windy it might be!

Date:

Astronomy

Sep. 07, 2013 Rise Set
Actual Time 6:26 AM MDT 7:14 PM MDT
Civil Twilight 5:58 AM MDT 7:41 PM MDT
Nautical Twilight 5:26 AM MDT 8:14 PM MDT
Astronomical Twilight 4:52 AM MDT 8:48 PM MDT
Moon 8:43 AM MDT (9/7) 8:13 PM MDT (9/7)
Length of Visible Light 13h 42m
Length of Day
12h 47m
Waxing Crescent, 5% of the Moon is Illuminated
Sep 7
Waxing Crescent
Sep 12
First Quarter
Sep 19
Full
Sep 26
Last Quarter
Oct 4
New

Hourly Weather History & Observations

Time (MDT) Temp. Dew Point Humidity Pressure Visibility Wind Dir Wind Speed Gust Speed Precip Events Conditions
12:53 AM 69.1 °F 52.0 °F 54% 29.89 in 10.0 mi WNW 10.4 mph - N/A   Clear
1:53 AM 66.9 °F 52.0 °F 59% 29.89 in 10.0 mi NW 3.5 mph - N/A   Clear
2:53 AM 61.0 °F 52.0 °F 72% 29.90 in 10.0 mi West 9.2 mph - N/A   Clear
3:53 AM 59.0 °F 51.1 °F 75% 29.91 in 10.0 mi WSW 5.8 mph - N/A   Clear
4:53 AM 60.1 °F 50.0 °F 69% 29.91 in 10.0 mi West 9.2 mph - N/A   Clear
5:53 AM 59.0 °F 50.0 °F 72% 29.92 in 10.0 mi SW 5.8 mph - N/A   Clear
6:53 AM 57.9 °F 50.0 °F 75% 29.94 in 10.0 mi West 11.5 mph - N/A   Clear
7:53 AM 66.9 °F 51.1 °F 57% 29.93 in 10.0 mi West 12.7 mph 21.9 mph N/A   Clear
8:53 AM 73.9 °F 52.0 °F 46% 29.94 in 10.0 mi West 15.0 mph - N/A   Clear
9:53 AM 78.1 °F 52.0 °F 40% 29.96 in 10.0 mi West 8.1 mph 18.4 mph N/A   Clear
10:53 AM 82.9 °F 52.0 °F 34% 29.94 in 10.0 mi Variable 4.6 mph - N/A   Clear
11:53 AM 88.0 °F 48.0 °F 25% 29.93 in 10.0 mi South 8.1 mph - N/A   Clear
12:53 PM 93.0 °F 42.1 °F 17% 29.90 in 10.0 mi SSW 16.1 mph 24.2 mph N/A   Clear
1:53 PM 96.1 °F 35.1 °F 12% 29.87 in 10.0 mi South 12.7 mph 24.2 mph N/A   Clear
2:53 PM 97.0 °F 35.1 °F 11% 29.85 in 10.0 mi South 13.8 mph 25.3 mph N/A   Clear
3:53 PM 97.0 °F 34.0 °F 11% 29.84 in 10.0 mi SE 11.5 mph 27.6 mph N/A   Clear
4:53 PM 96.1 °F 33.1 °F 11% 29.84 in 10.0 mi SSE 15.0 mph 24.2 mph N/A   Clear
5:53 PM 93.9 °F 34.0 °F 12% 29.84 in 10.0 mi SSE 17.3 mph 26.5 mph N/A   Clear
6:53 PM 90.0 °F 36.0 °F 15% 29.86 in 10.0 mi SSE 12.7 mph - N/A   Clear
7:53 PM 81.0 °F 39.0 °F 22% 29.87 in 10.0 mi South 13.8 mph - N/A   Clear
8:53 PM 80.1 °F 42.1 °F 26% 29.87 in 10.0 mi SSE 12.7 mph - N/A   Clear
9:53 PM 78.1 °F 41.0 °F 27% 29.87 in 10.0 mi South 13.8 mph 24.2 mph N/A   Clear
10:53 PM 78.1 °F 42.1 °F 28% 29.86 in 10.0 mi South 17.3 mph 26.5 mph N/A   Clear
11:53 PM 77.0 °F 43.0 °F 30% 29.85 in 10.0 mi South 19.6 mph 26.5 mph N/A   Clear